KZR707 UACC-UNNT

Flight info

Callsign KZR707
Flight time 1h 21m
Altitude 33000
Route OLGAS2B OLGAS M75 DAKIN B944 GOLIM GOLIM1K
Aircraft A321/M-SDE3FGHIRWY/LB1

Departure

Time 2026-04-23 10:23
Airport Nursultan Nazarbayev International Airport (UACC)

Arrival

Time 2026-04-23 11:45
Airport Novosibirsk Tolmachevo Airport (UNNT)
Time Latitude Longitude Altitude Speed Heading
2026-04-23 09:58 51.02613 71.46083 1163 ft 0 kts 358°
2026-04-23 10:12 51.02612 71.46083 1163 ft 1 kts 358°
2026-04-23 10:12 51.02596 71.46084 1169 ft 3 kts 358°
2026-04-23 10:12 51.02576 71.46085 1162 ft 3 kts 358°
2026-04-23 10:12 51.02556 71.46086 1163 ft 3 kts 358°
2026-04-23 10:13 51.02535 71.46088 1162 ft 3 kts 354°
2026-04-23 10:13 51.02515 71.46091 1163 ft 3 kts 354°
2026-04-23 10:13 51.02496 71.46095 1162 ft 3 kts 354°
2026-04-23 10:13 51.02475 71.46098 1162 ft 3 kts 355°
2026-04-23 10:14 51.02458 71.46100 1162 ft 1 kts 356°
2026-04-23 10:14 51.02455 71.46101 1162 ft 0 kts 356°
2026-04-23 10:15 51.02460 71.46100 1162 ft 1 kts 356°
2026-04-23 10:15 51.02474 71.46100 1163 ft 2 kts
2026-04-23 10:16 51.02493 71.46108 1163 ft 3 kts 22°
2026-04-23 10:16 51.02513 71.46135 1163 ft 4 kts 44°
2026-04-23 10:16 51.02537 71.46172 1163 ft 5 kts 44°
2026-04-23 10:16 51.02571 71.46225 1164 ft 8 kts 44°
2026-04-23 10:17 51.02614 71.46298 1162 ft 10 kts 53°
2026-04-23 10:17 51.02630 71.46400 1164 ft 10 kts 84°
2026-04-23 10:17 51.02661 71.46498 1164 ft 10 kts 47°
2026-04-23 10:17 51.02711 71.46588 1162 ft 11 kts 64°
2026-04-23 10:18 51.02674 71.46682 1164 ft 11 kts 137°
2026-04-23 10:18 51.02668 71.46774 1162 ft 10 kts 68°
2026-04-23 10:18 51.02705 71.46860 1164 ft 10 kts 44°
2026-04-23 10:18 51.02758 71.46939 1164 ft 11 kts 44°
2026-04-23 10:19 51.02813 71.47026 1164 ft 12 kts 45°
2026-04-23 10:19 51.02872 71.47119 1164 ft 12 kts 44°
2026-04-23 10:19 51.02934 71.47217 1164 ft 13 kts 44°
2026-04-23 10:19 51.03001 71.47319 1164 ft 14 kts 44°
2026-04-23 10:20 51.03070 71.47426 1164 ft 14 kts 44°
2026-04-23 10:20 51.03142 71.47538 1164 ft 15 kts 44°
2026-04-23 10:20 51.03216 71.47655 1164 ft 16 kts 45°
2026-04-23 10:20 51.03298 71.47785 1164 ft 17 kts 45°
2026-04-23 10:21 51.03385 71.47921 1162 ft 18 kts 44°
2026-04-23 10:21 51.03430 71.48094 1164 ft 18 kts 91°
2026-04-23 10:21 51.03429 71.48254 1164 ft 14 kts 91°
2026-04-23 10:21 51.03375 71.48361 1165 ft 11 kts 174°
2026-04-23 10:22 51.03318 71.48276 1165 ft 12 kts 224°
2026-04-23 10:22 51.03313 71.48269 1165 ft 2 kts 223°
2026-04-23 10:22 51.03143 71.48002 1165 ft 68 kts 225°
2026-04-23 10:22 51.02652 71.47237 1166 ft 127 kts 224°
2026-04-23 10:23 51.01904 71.46065 1196 ft 171 kts 226°
2026-04-23 10:23 51.01083 71.44737 1856 ft 166 kts 229°
2026-04-23 10:23 51.00250 71.43470 2535 ft 168 kts 228°
2026-04-23 10:23 50.99365 71.42097 2780 ft 189 kts 228°
2026-04-23 10:24 50.98377 71.40550 2993 ft 211 kts 228°
2026-04-23 10:24 50.97278 71.38831 3163 ft 234 kts 228°
2026-04-23 10:24 50.96078 71.36957 3412 ft 255 kts 228°
2026-04-23 10:24 50.94790 71.34961 4025 ft 261 kts 227°
2026-04-23 10:25 50.93335 71.33211 4720 ft 269 kts 204°
2026-04-23 10:25 50.91466 71.32884 5363 ft 279 kts 170°
2026-04-23 10:25 50.89707 71.34238 6009 ft 288 kts 142°
2026-04-23 10:25 50.88302 71.36516 6698 ft 291 kts 129°
2026-04-23 10:26 50.87474 71.39449 7282 ft 298 kts 98°
2026-04-23 10:26 50.87506 71.42684 7858 ft 300 kts 78°
2026-04-23 10:26 50.88163 71.45819 8428 ft 302 kts 58°
2026-04-23 10:26 50.89445 71.48437 8979 ft 303 kts 43°
2026-04-23 10:27 50.90917 71.50859 9580 ft 307 kts 41°
2026-04-23 10:27 50.92430 71.53261 10114 ft 310 kts 41°
2026-04-23 10:27 50.93973 71.55674 10695 ft 313 kts 40°
2026-04-23 10:27 50.95529 71.58102 11287 ft 315 kts 40°
2026-04-23 10:28 50.97077 71.60520 11848 ft 317 kts 40°
2026-04-23 10:28 50.98668 71.63015 12447 ft 319 kts 40°
2026-04-23 10:28 51.00224 71.65463 13007 ft 321 kts 40°
2026-04-23 10:28 51.01817 71.67980 13586 ft 323 kts 40°
2026-04-23 10:29 51.03413 71.70509 14103 ft 325 kts 40°
2026-04-23 10:29 51.05020 71.73060 14601 ft 327 kts 40°
2026-04-23 10:29 51.06636 71.75631 15086 ft 330 kts 40°
2026-04-23 10:29 51.08266 71.78223 15565 ft 333 kts 40°
2026-04-23 10:30 51.09889 71.80802 16056 ft 335 kts 40°
2026-04-23 10:30 51.11579 71.83468 16199 ft 350 kts 40°
2026-04-23 10:30 51.13348 71.86244 16331 ft 364 kts 40°
2026-04-23 10:30 51.15184 71.89126 16458 ft 377 kts 40°
2026-04-23 10:31 51.17088 71.92094 16588 ft 388 kts 38°
2026-04-23 10:31 51.19271 71.94664 16718 ft 394 kts 25°
2026-04-23 10:31 51.21777 71.96450 16852 ft 397 kts 13°
2026-04-23 10:31 51.24484 71.97329 17122 ft 396 kts
2026-04-23 10:32 51.27223 71.97277 17494 ft 393 kts 348°
2026-04-23 10:32 51.29887 71.96599 17888 ft 394 kts 346°
2026-04-23 10:32 51.32601 71.95876 18275 ft 396 kts 346°
2026-04-23 10:32 51.35325 71.95147 18600 ft 399 kts 346°
2026-04-23 10:33 51.38077 71.94410 18911 ft 403 kts 346°
2026-04-23 10:33 51.40852 71.93668 19214 ft 406 kts 346°
2026-04-23 10:33 51.43650 71.92919 19543 ft 409 kts 346°
2026-04-23 10:33 51.46466 71.92160 19877 ft 412 kts 346°
2026-04-23 10:34 51.49309 71.91393 20210 ft 415 kts 346°
2026-04-23 10:34 51.52129 71.90633 20531 ft 418 kts 346°
2026-04-23 10:34 51.55004 71.89857 20853 ft 421 kts 346°
2026-04-23 10:34 51.57914 71.89066 21069 ft 427 kts 345°
2026-04-23 10:35 51.60853 71.88263 21387 ft 430 kts 345°
2026-04-23 10:35 51.63816 71.87457 21722 ft 433 kts 345°
2026-04-23 10:35 51.66796 71.86648 22042 ft 436 kts 345°
2026-04-23 10:35 51.69792 71.85834 22344 ft 439 kts 345°
2026-04-23 10:36 51.72811 71.85014 22643 ft 441 kts 345°
2026-04-23 10:36 51.75852 71.84187 22937 ft 444 kts 345°
2026-04-23 10:36 51.78869 71.83364 23230 ft 447 kts 345°
2026-04-23 10:36 51.81947 71.82524 23494 ft 450 kts 345°
2026-04-23 10:37 51.85040 71.81678 23773 ft 452 kts 345°
2026-04-23 10:37 51.88142 71.80826 24101 ft 452 kts 345°
2026-04-23 10:37 51.91249 71.79972 24370 ft 454 kts 345°
2026-04-23 10:37 51.94379 71.79112 24615 ft 457 kts 345°
2026-04-23 10:38 51.97516 71.78252 24861 ft 459 kts 345°
2026-04-23 10:38 52.00680 71.77385 25105 ft 462 kts 345°
2026-04-23 10:38 52.03818 71.76525 25343 ft 464 kts 345°
2026-04-23 10:38 52.07039 71.75866 25574 ft 471 kts 352°
2026-04-23 10:39 52.10338 71.75934 25867 ft 478 kts
2026-04-23 10:39 52.13646 71.76778 26122 ft 484 kts
2026-04-23 10:39 52.16956 71.77863 26350 ft 486 kts
2026-04-23 10:39 52.20278 71.78950 26562 ft 488 kts
2026-04-23 10:40 52.23615 71.80033 26766 ft 490 kts
2026-04-23 10:40 52.26920 71.81100 26966 ft 492 kts
2026-04-23 10:40 52.30284 71.82179 27157 ft 494 kts
2026-04-23 10:40 52.33662 71.83263 27344 ft 496 kts
2026-04-23 10:41 52.37044 71.84360 27640 ft 495 kts
2026-04-23 10:41 52.40417 71.85459 27886 ft 496 kts
2026-04-23 10:41 52.43816 71.86568 28021 ft 499 kts
2026-04-23 10:41 52.47231 71.87683 28196 ft 501 kts
2026-04-23 10:42 52.50650 71.88801 28421 ft 502 kts
2026-04-23 10:42 52.54030 71.89908 28657 ft 502 kts
2026-04-23 10:42 52.57452 71.91027 28896 ft 502 kts
2026-04-23 10:42 52.60887 71.92151 29113 ft 503 kts
2026-04-23 10:43 52.64318 71.93278 29373 ft 503 kts
2026-04-23 10:43 52.67751 71.94387 29612 ft 503 kts
2026-04-23 10:43 52.71195 71.95441 29852 ft 503 kts
2026-04-23 10:43 52.74637 71.96447 30057 ft 503 kts
2026-04-23 10:44 52.78085 71.97429 30262 ft 503 kts
2026-04-23 10:44 52.81533 71.98415 30489 ft 502 kts
2026-04-23 10:44 52.84926 71.99402 30710 ft 502 kts
2026-04-23 10:44 52.88353 72.00416 30965 ft 501 kts
2026-04-23 10:45 52.91775 72.01443 31276 ft 498 kts
2026-04-23 10:45 52.95183 72.02475 31438 ft 499 kts
2026-04-23 10:45 52.98604 72.03515 31567 ft 501 kts
2026-04-23 10:45 53.02043 72.04554 31696 ft 503 kts
2026-04-23 10:46 53.05485 72.05589 31850 ft 503 kts
2026-04-23 10:46 53.08887 72.06612 32050 ft 503 kts
2026-04-23 10:46 53.12325 72.07653 32259 ft 502 kts
2026-04-23 10:46 53.15759 72.08700 32523 ft 501 kts
2026-04-23 10:47 53.19180 72.09747 32772 ft 499 kts
2026-04-23 10:47 53.22583 72.10790 32830 ft 497 kts
2026-04-23 10:47 53.29380 72.12858 32822 ft 496 kts
2026-04-23 10:48 53.36174 72.14937 32822 ft 496 kts
2026-04-23 10:48 53.42919 72.17012 32842 ft 497 kts
2026-04-23 10:49 53.49715 72.19102 32809 ft 497 kts
2026-04-23 10:49 53.56528 72.21217 32820 ft 498 kts
2026-04-23 10:50 53.63306 72.23326 32825 ft 498 kts
2026-04-23 10:50 53.70116 72.25484 32856 ft 499 kts
2026-04-23 10:51 53.76935 72.27705 32838 ft 499 kts
2026-04-23 10:51 53.83749 72.29953 32832 ft 499 kts
2026-04-23 10:52 53.90569 72.32187 32829 ft 499 kts
2026-04-23 10:52 53.97337 72.34400 32843 ft 499 kts
2026-04-23 10:53 54.04160 72.36637 32785 ft 499 kts
2026-04-23 10:53 54.07512 72.38256 32791 ft 504 kts 19°
2026-04-23 10:53 54.10651 72.40933 32794 ft 507 kts 31°
2026-04-23 10:54 54.13474 72.44532 32795 ft 508 kts 42°
2026-04-23 10:54 54.15876 72.48926 32797 ft 507 kts 54°
2026-04-23 10:54 54.17750 72.53900 32798 ft 504 kts 65°
2026-04-23 10:54 54.19075 72.59406 32790 ft 500 kts 77°
2026-04-23 10:55 54.21007 72.70813 32794 ft 500 kts 77°
2026-04-23 10:55 54.22926 72.82249 32770 ft 501 kts 78°
2026-04-23 10:56 54.24839 72.93734 32770 ft 503 kts 78°
2026-04-23 10:56 54.26736 73.05171 32771 ft 504 kts 78°
2026-04-23 10:57 54.28651 73.16720 32790 ft 505 kts 78°
2026-04-23 10:57 54.30553 73.28300 32791 ft 505 kts 78°
2026-04-23 10:58 54.32434 73.39892 32792 ft 505 kts 78°
2026-04-23 10:58 54.34285 73.51410 32795 ft 505 kts 78°
2026-04-23 10:59 54.36151 73.63037 32797 ft 505 kts 78°
2026-04-23 10:59 54.38016 73.74657 32798 ft 505 kts 78°
2026-04-23 11:00 54.39858 73.86296 32799 ft 506 kts 79°
2026-04-23 11:00 54.41673 73.97890 32796 ft 507 kts 79°
2026-04-23 11:01 54.43504 74.09579 32794 ft 507 kts 79°
2026-04-23 11:01 54.45319 74.21270 32791 ft 507 kts 79°
2026-04-23 11:02 54.47127 74.32999 32753 ft 507 kts 80°
2026-04-23 11:02 54.48907 74.44685 32748 ft 510 kts 81°
2026-04-23 11:03 54.50706 74.56510 32750 ft 512 kts 80°
2026-04-23 11:03 54.52492 74.68379 32756 ft 513 kts 81°
2026-04-23 11:04 54.54272 74.80290 32769 ft 514 kts 81°
2026-04-23 11:04 54.56040 74.92138 32732 ft 515 kts 82°
2026-04-23 11:05 54.57804 75.04125 32742 ft 516 kts 82°
2026-04-23 11:05 54.59552 75.16151 32755 ft 517 kts 82°
2026-04-23 11:06 54.62168 75.34221 32734 ft 518 kts 83°
2026-04-23 11:07 54.63891 75.46205 32738 ft 519 kts 83°
2026-04-23 11:07 54.65609 75.58315 32748 ft 520 kts 83°
2026-04-23 11:08 54.67324 75.70453 32754 ft 520 kts 83°
2026-04-23 11:08 54.69031 75.82595 32759 ft 520 kts 83°
2026-04-23 11:09 54.70720 75.94681 32751 ft 522 kts 83°
2026-04-23 11:09 54.72410 76.06901 32758 ft 522 kts 83°
2026-04-23 11:10 54.74081 76.19120 32756 ft 523 kts 83°
2026-04-23 11:10 54.75741 76.31380 32746 ft 523 kts 84°
2026-04-23 11:11 54.77387 76.43650 32712 ft 524 kts 84°
2026-04-23 11:11 54.79024 76.55887 32705 ft 526 kts 84°
2026-04-23 11:12 54.80664 76.68242 32709 ft 527 kts 84°
2026-04-23 11:12 54.82298 76.80633 32719 ft 527 kts 84°
2026-04-23 11:13 54.83909 76.93052 32691 ft 528 kts 84°
2026-04-23 11:13 54.85513 77.05489 32707 ft 528 kts 84°
2026-04-23 11:14 54.87101 77.17865 32709 ft 529 kts 84°
2026-04-23 11:14 54.88680 77.30318 32706 ft 529 kts 85°
2026-04-23 11:15 54.90253 77.42812 32689 ft 529 kts 85°
2026-04-23 11:15 54.91807 77.55312 32695 ft 529 kts 85°
2026-04-23 11:16 54.93082 77.67759 32701 ft 523 kts 91°
2026-04-23 11:16 54.93956 77.80330 32698 ft 524 kts 91°
2026-04-23 11:17 54.94818 77.92902 32705 ft 524 kts 91°
2026-04-23 11:17 54.95665 78.05486 32682 ft 524 kts 91°
2026-04-23 11:18 54.96511 78.18071 32683 ft 524 kts 91°
2026-04-23 11:18 54.97337 78.30615 32687 ft 524 kts 91°
2026-04-23 11:19 54.98146 78.43213 32683 ft 524 kts 91°
2026-04-23 11:19 54.98945 78.55818 32686 ft 524 kts 91°
2026-04-23 11:20 54.99729 78.68425 32669 ft 524 kts 91°
2026-04-23 11:20 55.00493 78.80932 32682 ft 522 kts 91°
2026-04-23 11:21 55.01253 78.93483 32685 ft 520 kts 91°
2026-04-23 11:21 55.01999 79.06006 32655 ft 520 kts 91°
2026-04-23 11:22 55.02730 79.18543 32658 ft 520 kts 91°
2026-04-23 11:22 55.03448 79.31008 32654 ft 520 kts 91°
2026-04-23 11:23 55.04149 79.43563 32659 ft 520 kts 91°
2026-04-23 11:23 55.04840 79.56111 32634 ft 520 kts 91°
2026-04-23 11:24 55.05522 79.68687 32622 ft 521 kts 90°
2026-04-23 11:24 55.06182 79.81291 32627 ft 522 kts 91°
2026-04-23 11:25 55.06837 79.93809 32623 ft 522 kts 91°
2026-04-23 11:25 55.07487 80.06439 32628 ft 522 kts 91°
2026-04-23 11:26 55.08117 80.19072 32559 ft 522 kts 90°
2026-04-23 11:26 55.08429 80.25387 31613 ft 526 kts 90°
2026-04-23 11:26 55.08741 80.31822 30452 ft 535 kts 89°
2026-04-23 11:26 55.09050 80.38210 29299 ft 535 kts 89°
2026-04-23 11:27 55.09364 80.44645 27806 ft 534 kts 88°
2026-04-23 11:27 55.09680 80.51115 26625 ft 528 kts 88°
2026-04-23 11:27 55.09985 80.57374 26121 ft 509 kts 88°
2026-04-23 11:27 55.10274 80.63503 25395 ft 506 kts 88°
2026-04-23 11:28 55.10549 80.69598 24717 ft 501 kts 88°
2026-04-23 11:28 55.10815 80.75641 24038 ft 497 kts 88°
2026-04-23 11:28 55.11076 80.81633 23366 ft 493 kts 87°
2026-04-23 11:28 55.11331 80.87510 22636 ft 488 kts 87°
2026-04-23 11:29 55.11585 80.93362 21991 ft 481 kts 87°
2026-04-23 11:29 55.11806 80.99148 21345 ft 474 kts 89°
2026-04-23 11:29 55.11918 81.04851 20786 ft 465 kts 91°
2026-04-23 11:29 55.11940 81.10460 20222 ft 457 kts 92°
2026-04-23 11:30 55.11911 81.15962 19682 ft 450 kts 92°
2026-04-23 11:30 55.11867 81.21399 19150 ft 444 kts 92°
2026-04-23 11:30 55.11833 81.26750 18642 ft 438 kts 92°
2026-04-23 11:30 55.11817 81.32020 18160 ft 432 kts 92°
2026-04-23 11:31 55.11818 81.37172 17650 ft 427 kts 91°
2026-04-23 11:31 55.11829 81.42329 17162 ft 420 kts 91°
2026-04-23 11:31 55.11844 81.47381 16698 ft 413 kts 91°
2026-04-23 11:31 55.11857 81.52360 16226 ft 407 kts 91°
2026-04-23 11:32 55.11864 81.57251 15761 ft 400 kts 92°
2026-04-23 11:32 55.11864 81.62090 15289 ft 395 kts 92°
2026-04-23 11:32 55.11859 81.66858 14810 ft 390 kts 92°
2026-04-23 11:32 55.11851 81.71562 14335 ft 387 kts 92°
2026-04-23 11:33 55.11838 81.76169 13828 ft 383 kts 92°
2026-04-23 11:33 55.11822 81.80807 13362 ft 379 kts 92°
2026-04-23 11:33 55.11807 81.85385 12830 ft 375 kts 92°
2026-04-23 11:33 55.11794 81.89927 12339 ft 371 kts 92°
2026-04-23 11:34 55.11782 81.94413 11843 ft 368 kts 92°
2026-04-23 11:34 55.11769 81.98857 11348 ft 364 kts 92°
2026-04-23 11:34 55.11752 82.03260 10855 ft 360 kts 92°
2026-04-23 11:34 55.11733 82.07603 10481 ft 353 kts 92°
2026-04-23 11:35 55.11716 82.11738 10361 ft 338 kts 92°
2026-04-23 11:35 55.11698 82.15757 10236 ft 324 kts 92°
2026-04-23 11:35 55.11677 82.19616 10070 ft 314 kts 92°
2026-04-23 11:35 55.11654 82.23392 9806 ft 308 kts 92°
2026-04-23 11:36 55.11631 82.27119 9566 ft 305 kts 92°
2026-04-23 11:36 55.11607 82.30798 9427 ft 304 kts 92°
2026-04-23 11:36 55.11580 82.34489 9293 ft 303 kts 92°
2026-04-23 11:36 55.11553 82.38158 9149 ft 302 kts 92°
2026-04-23 11:37 55.11537 82.41813 8839 ft 300 kts 89°
2026-04-23 11:37 55.11829 82.45412 8482 ft 299 kts 80°
2026-04-23 11:37 55.12239 82.48925 8127 ft 298 kts 80°
2026-04-23 11:37 55.12650 82.52453 7776 ft 296 kts 80°
2026-04-23 11:38 55.13057 82.55963 7424 ft 294 kts 80°
2026-04-23 11:38 55.13514 82.59431 7071 ft 293 kts 77°
2026-04-23 11:38 55.14057 82.62854 6704 ft 291 kts 75°
2026-04-23 11:38 55.14630 82.66215 6486 ft 284 kts 75°
2026-04-23 11:39 55.15008 82.68394 6277 ft 283 kts 75°
2026-04-23 11:39 55.15577 82.71688 5867 ft 284 kts 76°
2026-04-23 11:39 55.15911 82.75046 5497 ft 279 kts 90°
2026-04-23 11:39 55.15968 82.79535 5044 ft 276 kts 91°
2026-04-23 11:40 55.15775 82.82843 4662 ft 271 kts 114°
2026-04-23 11:40 55.14800 82.85543 4329 ft 260 kts 141°
2026-04-23 11:40 55.13301 82.87111 3956 ft 251 kts 167°
2026-04-23 11:40 55.12192 82.87447 3717 ft 247 kts 179°
2026-04-23 11:41 55.10483 82.87678 3342 ft 246 kts 179°
2026-04-23 11:41 55.08778 82.87930 2981 ft 245 kts 178°
2026-04-23 11:41 55.07129 82.88190 2911 ft 231 kts 178°
2026-04-23 11:41 55.05558 82.88242 2648 ft 222 kts 193°
2026-04-23 11:42 55.03814 82.86654 2430 ft 215 kts 225°
2026-04-23 11:42 55.03220 82.85240 2315 ft 212 kts 240°
2026-04-23 11:42 55.02826 82.82800 2060 ft 208 kts 257°
2026-04-23 11:42 55.02611 82.80330 1789 ft 206 kts 257°
2026-04-23 11:43 55.02405 82.77968 1536 ft 191 kts 257°
2026-04-23 11:43 55.02212 82.75779 1303 ft 173 kts 256°
2026-04-23 11:43 55.02036 82.73812 1071 ft 156 kts 257°
2026-04-23 11:43 55.01868 82.71970 894 ft 153 kts 257°
2026-04-23 11:44 55.01696 82.70150 670 ft 152 kts 257°
2026-04-23 11:44 55.01544 82.68348 471 ft 151 kts 257°
2026-04-23 11:44 55.01378 82.66575 375 ft 139 kts 259°
2026-04-23 11:44 55.01251 82.65208 373 ft 90 kts 263°
2026-04-23 11:45 55.01196 82.64497 372 ft 43 kts 261°
2026-04-23 11:45 55.01170 82.64199 375 ft 19 kts 261°
2026-04-23 11:45 55.01123 82.63996 375 ft 17 kts 203°